Zurück zum Katalog

STARLINK-30137

AktivKommunikationVLEO
NORAD 56843·PAYLOAD·🇺🇸 United States

Gestartet Jun 4, 2023 von Cape Canaveral Space Force Station

Loading…

Nächste Überflüge (nächste 24 Stunden)

TLE

AktuellSource: CelesTrak SupGP

Epoche: Sep 15, 2026, 03:17 UTC

1 56843C 23079W   26258.13729167  .00043445  00000+0  15727-2 0  2587
2 56843  43.0021 116.9181 0001716 280.4327  71.9318 15.27573441    15

Verfolge STARLINK-30137 in Echtzeit mit AllMySat

Download on the App Store